カタログに戻る

DSX

運用中科学MEO
NORAD 44344·PAYLOAD·🇺🇸 United States

打ち上げ Jun 25, 2019 から Cape Canaveral Space Force Station

Loading…

次のパス (今後24時間)

TLE

最新Source: Space-Track

元期: Sep 13, 2026, 10:23 UTC

1 44344U 19036F   26256.43310322 -.00000051  00000-0  00000+0 0  9993
2 44344  42.3040 318.4442 1967337  53.6811 322.9802  4.54371389119809

AllMySatでDSXをリアルタイム追跡

Download on the App Store